Content
SEND FEEDBACK

Daily
Averages
Monthly
Summary
United States of America

GREENSBURG, INDIANA


Home > North America > United States > Indiana
Elevation: 949 feet     Latitude: 39 20N     Longitude: 085 28W

WEATHER
 
SELECT A DAY
Number of Records: 175,394;   Date Range: 10/15/98 - 9/30/14
 
SHARE

PRINT THIS DATA

[ ← Previous Day ]
WEATHER ALMANAC - JULY 30, 2014
[ Next Day → ]
[ °C ]   °F
Weather ElementAverageHighLow
Temperature67.9 °F79 °F (3:53 pm)57.9 °F (12:53 am)
Dewpoint60.5 °F64.9 °F (12:53 am)55.9 °F (12:53 pm)
Humidity78.1 %93 % (6:53 am)56 % (10:53 am)
Barometer30.04 in30.07 in (6:53 am)30.02 in (8:53 am)
Wind Speed6.8 mph24.2 mph (3:24 pm)
Wind Gust34.5 mph (3:24 pm)
Weather ElementAverage
Visibility7.9 mi
Wind DirectionSSW (193.4 °)

Weather ElementTotal
Precipitation1.55 in
Cooling Degree Days3.5 (Base 65)
Growing Degree Days18.5 (Base 50)
Averaged from 35 records on July 30, 2014
WEATHER CONDITIONS BREAKOUT
WIND DIRECTION BREAKOUT
WEATHER BY HOUR - JULY 30, 2014
[ °C ]   °F
Local TimeTemperatureDewpointHumidityBarometerVisibilityWind DirectionWind SpeedGust SpeedPrecipitationEventsConditions
12:53 AM62.1 °F59.0 °F90 %30.04 in10.0 miWSW (240°)4.6 mph0.00 inScattered Clouds
2:53 AM61.0 °F57.9 °F90 %30.03 in8.0 miSouth (190°)3.5 mphMostly Cloudy
3:38 AM60.1 °F57.9 °F93 %30.04 in1.8 miSSW (210°)4.6 mphPartly Cloudy
3:47 AM60.8 °F57.2 °F88 %30.04 in3.0 miSouth (180°)3.5 mphPartly Cloudy
3:53 AM60.1 °F57.0 °F90 %30.03 in1.8 miSouth (170°)3.5 mphPartly Cloudy
4:16 AM60.1 °F57.0 °F90 %30.03 in3.0 miSouth (190°)3.5 mphScattered Clouds
4:53 AM59.0 °F57.0 °F93 %30.02 in5.0 miSouth (190°)3.5 mphScattered Clouds
5:53 AM60.1 °F57.0 °F90 %30.03 in8.0 miSouth (190°)3.5 mphMostly Cloudy
6:53 AM57.9 °F55.9 °F93 %30.04 in6.0 miSouth (190°)4.6 mphClear
7:53 AM60.1 °F57.9 °F93 %30.05 in9.0 miSSW (200°)4.6 mphClear
8:34 AM63.0 °F59.0 °F87 %30.06 in10.0 miSW (220°)8.1 mphPartly Cloudy
8:53 AM64.0 °F59.0 °F84 %30.06 in10.0 miSW (230°)5.8 mphClear
9:53 AM68.0 °F61.0 °F78 %30.06 in10.0 miSW (220°)6.9 mphClear
10:53 AM72.0 °F63.0 °F73 %30.06 in10.0 miWSW (250°)9.2 mphClear
11:53 AM75.0 °F62.1 °F64 %30.06 in10.0 miWest (270°)9.2 mphClear
1:53 PM78.1 °F61.0 °F56 %30.04 in10.0 miWest (280°)8.1 mphScattered Clouds
2:53 PM79.0 °F62.1 °F56 %30.03 in10.0 miWSW (250°)12.7 mphThunderstormPartly Cloudy
3:10 PM73.0 °F60.1 °F64 %30.05 in1.8 miWest (280°)24.2 mph34.5 mph0.09 inRainLight Rain
3:20 PM66.9 °F60.1 °F79 %30.07 in1.0 miWest (280°)12.7 mph0.25 inRain-ThunderstormHeavy Thunderstorms and Rain
3:35 PM66.9 °F61.0 °F81 %30.05 in3.0 miSE (130°)6.9 mph0.40 inRain-ThunderstormLight Thunderstorms and Rain
3:47 PM69.8 °F60.8 °F73 %30.05 in10.0 miCalm0.40 inMostly Cloudy
3:53 PM72.0 °F61.0 °F68 %30.04 in10.0 miCalm0.40 inScattered Clouds
4:03 PM73.0 °F62.1 °F68 %30.05 in10.0 miSSE (160°)8.1 mphThunderstormMostly Cloudy
4:19 PM75.0 °F62.1 °F64 %30.05 in10.0 miSE (140°)6.9 mphThunderstormThunderstorm
4:31 PM75.0 °F63.0 °F66 %30.05 in10.0 miSSE (150°)10.4 mphPartly Cloudy
4:53 PM72.0 °F63.0 °F73 %30.04 in10.0 miSW (220°)16.1 mphThunderstormThunderstorm
5:18 PM71.1 °F62.1 °F73 %30.05 in10.0 miSouth (180°)8.1 mph0.00 inRain-ThunderstormLight Rain
5:32 PM72.0 °F63.0 °F73 %30.04 in10.0 miSouth (180°)10.4 mph0.00 inScattered Clouds
5:53 PM72.0 °F62.1 °F71 %30.03 in10.0 miSouth (190°)5.8 mph0.00 inMostly Cloudy
6:22 PM72.0 °F64.0 °F76 %30.04 in10.0 miSouth (180°)3.5 mphThunderstormMostly Cloudy
6:40 PM73.9 °F64.0 °F71 %30.04 in10.0 miCalmMostly Cloudy
6:53 PM72.0 °F64.9 °F78 %30.04 in6.0 miNorth (360°)6.9 mph0.01 inRainLight Rain
8:53 PM66.9 °F63.0 °F87 %30.03 in10.0 miSW (220°)6.9 mphPartly Cloudy
9:53 PM66.9 °F61.0 °F81 %30.04 in10.0 miSW (220°)8.1 mphMostly Cloudy
10:53 PM66.0 °F60.1 °F81 %30.04 in10.0 miSSW (210°)4.6 mphPartly Cloudy
Hourly data recorded from KGEZ, located miles away from Greensburg, Indiana







STORIES FROM OUR PARTNERS